Regional Weather Roundup
Issued by NWS Charleston, WV

Home | Current Version | Previous Version | Graphics & Text | Print | Product List | Glossary On
Versions: 1 2 3 4 5 6 7 8 9 10 11 12 13 14 15 16 17 18 19 20 21 22 23 24 25 26 27
000
ASUS41 KRLX 241810
RWRRLX
West Virginia Regional Weather Roundup
National Weather Service Charleston WV
200 PM EDT TUE APR 24 2018

Note: "fair" indicates few or no clouds below 12,000 feet with no
significant weather and/or obstructions to visibility.

WVZ003-241900-
Northern Panhandle of West Virginia

CITY           SKY/WX    TMP DP  RH WIND       PRES   REMARKS
WHEELING       LGT RAIN  52  49  89 E13       30.03F
$$

WVZ009-241900-
Northwest West Virginia

CITY           SKY/WX    TMP DP  RH WIND       PRES   REMARKS
PARKERSBURG    CLOUDY    54  51  90 E9        29.99F
$$

WVZ006-241900-
Western West Virginia

CITY           SKY/WX    TMP DP  RH WIND       PRES   REMARKS
HUNTINGTON     LGT RAIN  54  51  90 NE8       29.91F
$$

WVZ015-241900-
West Central West Virginia

CITY           SKY/WX    TMP DP  RH WIND       PRES   REMARKS
CHARLESTON     LGT RAIN  58  53  84 NE9       29.91F
$$

WVZ022-031-241900-
North Central West Virginia

CITY           SKY/WX    TMP DP  RH WIND       PRES   REMARKS
CLARKSBURG     LGT RAIN  56  49  77 E8        30.00F
MORGANTOWN     LGT RAIN  53  48  83 VRB5      30.03F
$$

WVZ025-035-042-045-241900-
Southern West Virginia

CITY           SKY/WX    TMP DP  RH WIND       PRES   REMARKS
BECKLEY        CLOUDY    53  50  89 SE16G28   29.92F
LOGAN          CLOUDY    57  52  82 SE6G20    29.89F
BLUEFIELD      LGT RAIN  50  47  89 VRB7      29.93F FOG
LEWISBURG      DRIZZLE   52  49  91 E10G18    29.98F
$$

WVZ047-241900-
Northern Mountains of West Virginia

CITY           SKY/WX    TMP DP  RH WIND       PRES   REMARKS
ELKINS         PTSUNNY   55  44  66 E13G26    30.01F
$$

WVZ052-241900-
Eastern Panhandle of West Virginia

CITY           SKY/WX    TMP DP  RH WIND       PRES   REMARKS
MARTINSBURG    LGT RAIN  58  48  69 E7        30.15F
PETERSBURG     DRIZZLE   50  48  93 N6        30.11F
$$




USA.gov is the U.S. government's official web portal to all federal, state and local government web resources and services.